| Date | Time | Temp. (oF) | Dew Point (oF) | Rel. Hum. (%) | Press. (in.) | Wind Dir. | Wind Speed (mph) | Hourly Rainfall (in.) |
|
|---|---|---|---|---|---|---|---|---|---|
| 1 | 04/05 | 00:00 | 39 | 39 | 100 | 29.94 | WSW | 9 | 0.00 |
| 2 | 04/04 | 23:00 | 39 | 39 | 100 | 29.93 | ESE | 9 | 0.00 |
| 3 | 04/04 | 22:00 | 39 | 39 | 100 | 29.93 | SE | 5 | 0.01 |
| 4 | 04/04 | 21:00 | 41 | 41 | 100 | 29.95 | NE | 10 | 0.00 |
| 5 | 04/04 | 20:00 | 43 | 42 | 97 | 29.95 | E | 10 | 0.00 |
| 6 | 04/04 | 19:00 | 44 | 42 | 96 | 29.93 | ENE | 7 | 0.00 |
| 7 | 04/04 | 18:00 | 45 | 43 | 94 | 29.93 | SE | 3 | 0.00 |
| 8 | 04/04 | 17:00 | 46 | 44 | 93 | 29.91 | SSE | 4 | 0.00 |
| 9 | 04/04 | 16:00 | 46 | 43 | 92 | 29.90 | ESE | 16 | 0.00 |
| 10 | 04/04 | 15:00 | 46 | 43 | 92 | 29.92 | ESE | 6 | 0.00 |
| 11 | 04/04 | 14:00 | 46 | 43 | 92 | 29.93 | ESE | 4 | 0.00 |
| 12 | 04/04 | 13:00 | 45 | 43 | 95 | 29.94 | ESE | 7 | 0.00 |
| 13 | 04/04 | 12:00 | 45 | 44 | 97 | 29.95 | ENE | 5 | 0.00 |
| 14 | 04/04 | 11:00 | 45 | 44 | 99 | 29.96 | E | 11 | 0.00 |
| 15 | 04/04 | 10:00 | 44 | 44 | 100 | 29.97 | E | 6 | 0.00 |
| 16 | 04/04 | 09:00 | 43 | 42 | 100 | 29.95 | ESE | 3 | 0.00 |
| 17 | 04/04 | 08:00 | 43 | 42 | 100 | 29.94 | E | 4 | 0.00 |
| 18 | 04/04 | 07:00 | 42 | 41 | 100 | 29.94 | E | 6 | 0.00 |
| 19 | 04/04 | 06:00 | 43 | 42 | 100 | 29.92 | ESE | 5 | 0.00 |
| 20 | 04/04 | 05:00 | 43 | 42 | 99 | 29.92 | ESE | 2 | 0.00 |
| 21 | 04/04 | 04:00 | 43 | 42 | 99 | 29.90 | ESE | 5 | 0.00 |
| 22 | 04/04 | 03:00 | 44 | 43 | 98 | 29.90 | SSW | 3 | 0.00 |
| 23 | 04/04 | 02:00 | 44 | 43 | 98 | 29.91 | ESE | 7 | 0.00 |
| 24 | 04/04 | 01:00 | 45 | 44 | 97 | 29.92 | ESE | 8 | 0.00 |